CW7410 Weather Reports


time (UTC)temp
C
wind
direction
speed
KPH
gust
KPH
rain 1hr
cm
rain 24hr
cm
rain mn
cm
humidity
%
barometer
mb
20260509115038 11 242 3.2 6.4 0.00 0.00 0.00 46 1017.1
20260509114548 12 269 1.6 6.4 0.00 0.00 0.00 44 1017.1
20260509114038 12 245 3.2 6.4 0.00 0.00 0.00 45 1017.0
20260509113541 12 260 1.6 4.8 0.00 0.00 0.00 45 1017.0
20260509113057 13 323 1.6 6.4 0.00 0.00 0.00 45 1017.0
20260509112538 13 343 3.2 8.0 0.00 0.00 0.00 41 1017.0
20260509112038 13 326 3.2 8.0 0.00 0.00 0.00 40 1016.9
20260509111553 13 325 4.8 9.7 0.00 0.00 0.00 38 1016.9
20260509111037 14 314 4.8 11.3 0.00 0.00 0.00 38 1016.8
20260509110541 14 310 4.8 11.3 0.00 0.00 0.00 38 1016.8
20260509110050 14 299 4.8 12.9 0.00 0.00 0.00 37 1016.8
20260509105539 15 327 6.4 12.9 0.00 0.00 0.00 37 1016.7
20260509105038 15 319 4.8 12.9 0.00 0.00 0.00 36 1016.7
20260509104548 15 333 6.4 14.5 0.00 0.00 0.00 35 1016.7
20260509104039 15 298 6.4 14.5 0.00 0.00 0.00 34 1016.7
20260509103538 15 330 6.4 19.3 0.00 0.00 0.00 34 1016.7
20260509103053 15 312 8.0 22.5 0.00 0.00 0.00 34 1016.7
20260509102538 15 348 11.3 24.1 0.00 0.00 0.00 33 1016.7
20260509102039 15 346 14.5 24.1 0.00 0.00 0.00 34 1016.7
20260509101554 14 335 16.1 24.1 0.00 0.00 0.00 35 1016.6
20260509101038 14 331 12.9 20.9 0.00 0.00 0.00 35 1016.5
20260509100538 14 328 8.0 24.1 0.00 0.00 0.00 34 1016.3
20260509100048 14 340 11.3 24.1 0.00 0.00 0.00 34 1016.3
20260509095539 14 323 14.5 24.1 0.00 0.00 0.00 34 1016.3
20260509095038 14 344 9.7 17.7 0.00 0.00 0.00 34 1016.3
20260509094551 14 327 8.0 16.1 0.00 0.00 0.00 35 1016.3
20260509094040 14 344 9.7 19.3 0.00 0.00 0.00 33 1016.2
20260509093540 14 355 8.0 19.3 0.00 0.00 0.00 34 1016.1
20260509093052 14 329 9.7 19.3 0.00 0.00 0.00 33 1016.1
20260509092538 14 355 8.0 17.7 0.00 0.00 0.00 33 1016.1
20260509092038 14 348 9.7 14.5 0.00 0.00 0.00 34 1016.1
20260509091554 15 346 9.7 16.1 0.00 0.00 0.00 34 1016.1
20260509091041 15 331 9.7 17.7 0.00 0.00 0.00 34 1016.0
20260509090539 15 355 11.3 19.3 0.00 0.00 0.00 34 1015.9
20260509090047 15 336 11.3 19.3 0.00 0.00 0.00 33 1015.8
20260509085537 15 355 11.3 20.9 0.00 0.00 0.00 33 1015.8
20260509085038 16 335 12.9 20.9 0.00 0.00 0.00 32 1015.9
20260509084552 16 348 16.1 24.1 0.00 0.00 0.00 33 1015.8
20260509084039 16 5 12.9 24.1 0.00 0.00 0.00 33 1015.8
20260509083539 16 9 14.5 22.5 0.00 0.00 0.00 33 1015.7
20260509083052 16 331 14.5 22.5 0.00 0.00 0.00 34 1015.7
20260509082539 15 331 14.5 22.5 0.00 0.00 0.00 34 1015.6
20260509082038 15 345 12.9 22.5 0.00 0.00 0.00 35 1015.5
20260509081551 15 11 12.9 22.5 0.00 0.00 0.00 36 1015.4
20260509081039 15 344 12.9 22.5 0.00 0.00 0.00 36 1015.4
20260509080538 15 325 11.3 19.3 0.00 0.00 0.00 37 1015.3
20260509080045 15 331 11.3 19.3 0.00 0.00 0.00 38 1015.3
20260509075538 15 342 11.3 19.3 0.00 0.00 0.00 39 1015.2
20260509075038 15 355 9.7 17.7 0.00 0.00 0.00 39 1015.3
20260509074555 15 338 9.7 17.7 0.00 0.00 0.00 41 1015.2
20260509074038 15 360 9.7 17.7 0.00 0.00 0.00 41 1015.2
20260509073538 14 355 9.7 14.5 0.00 0.00 0.00 42 1015.3
20260509073101 14 303 8.0 14.5 0.00 0.00 0.00 43 1015.1
20260509072538 14 355 8.0 12.9 0.00 0.00 0.00 43 1015.2
20260509072039 14 323 8.0 12.9 0.00 0.00 0.00 43 1015.2
20260509071553 14 339 6.4 12.9 0.00 0.00 0.00 44 1015.1
20260509071039 14 360 6.4 11.3 0.00 0.00 0.00 44 1015.1
20260509070539 15 360 3.2 8.0 0.00 0.00 0.00 44 1015.0
20260509070049 15 360 4.8 8.0 0.00 0.00 0.00 45 1015.1
20260509065538 15 360 3.2 6.4 0.00 0.00 0.00 44 1015.0
20260509065040 15 336 3.2 8.0 0.00 0.00 0.00 43 1015.0
20260509064559 15 339 3.2 9.7 0.00 0.00 0.00 42 1014.8
20260509064038 15 352 4.8 9.7 0.00 0.00 0.00 42 1014.7
20260509063538 15 350 3.2 14.5 0.00 0.00 0.00 41 1014.7
20260509063050 15 346 6.4 14.5 0.00 0.00 0.00 42 1014.7
20260509062542 15 355 6.4 14.5 0.00 0.00 0.00 42 1014.7
20260509062040 15 334 8.0 14.5 0.00 0.00 0.00 41 1014.5
20260509061551 15 344 8.0 16.1 0.00 0.00 0.00 43 1014.5
20260509061037 15 327 9.7 16.1 0.00 0.00 0.00 43 1014.5
20260509060538 15 10 8.0 16.1 0.00 0.00 0.00 44 1014.5
20260509060054 15 342 6.4 16.1 0.00 0.00 0.00 44 1014.4
20260509055538 15 325 8.0 14.5 0.00 0.00 0.00 44 1014.4
20260509055038 15 335 6.4 14.5 0.00 0.00 0.00 45 1014.4
20260509054554 15 340 6.4 12.9 0.00 0.00 0.00 46 1014.3
20260509054038 15 332 6.4 9.7 0.00 0.00 0.00 45 1014.4
20260509053539 15 346 6.4 9.7 0.00 0.00 0.00 47 1014.2
20260509053052 15 5 4.8 8.0 0.00 0.00 0.00 47 1014.1
20260509052539 15 5 4.8 8.0 0.00 0.00 0.00 47 1014.1
20260509052038 15 352 4.8 8.0 0.00 0.00 0.00 46 1014.1
20260509051552 15 355 4.8 9.7 0.00 0.00 0.00 46 1014.1
20260509051042 15 355 4.8 9.7 0.00 0.00 0.00 47 1014.1
20260509050542 15 352 4.8 11.3 0.00 0.00 0.00 46 1014.2
20260509050056 15 360 6.4 12.9 0.00 0.00 0.00 46 1014.2
20260509045541 15 352 8.0 12.9 0.00 0.00 0.00 47 1014.2
20260509045041 15 360 8.0 12.9 0.00 0.00 0.00 45 1014.2
20260509044546 16 360 6.4 9.7 0.00 0.00 0.00 45 1014.3
20260509044041 16 360 4.8 8.0 0.00 0.00 0.00 44 1014.2
20260509043538 16 360 4.8 8.0 0.00 0.00 0.00 44 1014.2
20260509043055 16 360 4.8 6.4 0.00 0.00 0.00 45 1014.1
20260509042538 16 360 4.8 12.9 0.00 0.00 0.00 46 1014.2
20260509042040 16 330 3.2 12.9 0.00 0.00 0.00 46 1014.1
20260509041551 16 300 6.4 16.1 0.00 0.00 0.00 42 1014.1
20260509041039 16 304 6.4 16.1 0.00 0.00 0.00 42 1014.1
20260509040540 16 309 9.7 16.1 0.00 0.00 0.00 43 1014.1
20260509040054 16 281 3.2 14.5 0.00 0.00 0.00 47 1013.9
20260509035539 16 25 4.8 14.5 0.00 0.00 0.00 46 1013.8
20260509035041 16 331 8.0 14.5 0.00 0.00 0.00 42 1013.7
20260509034554 16 338 3.2 6.4 0.00 0.00 0.00 44 1013.6
20260509034041 16 79 4.8 6.4 0.00 0.00 0.00 44 1013.5
20260509033540 17 65 0.0 4.8 0.00 0.00 0.00 45 1013.5
20260509033054 17 41 1.6 8.0 0.00 0.00 0.00 46 1013.4
20260509032541 17 57 3.2 8.0 0.00 0.00 0.00 45 1013.2
20260509032039 17 70 1.6 8.0 0.00 0.00 0.00 43 1013.1
20260509031558 17 71 1.6 4.8 0.00 0.00 0.00 42 1013.1
20260509031041 18 94 3.2 6.4 0.00 0.00 0.00 40 1013.0
20260509030541 18 130 1.6 6.4 0.00 0.00 0.00 39 1013.0
20260509030053 18 131 3.2 9.7 0.00 0.00 0.00 39 1012.9
20260509025540 18 360 4.8 9.7 0.00 0.00 0.00 39 1012.9
20260509025040 19 360 6.4 9.7 0.00 0.00 0.00 40 1012.9
20260509024549 19 360 3.2 6.4 0.00 0.00 0.00 40 1012.9
20260509024040 20 138 0.0 4.8 0.00 0.00 0.00 43 1012.8
20260509023541 20 117 1.6 6.4 0.00 0.00 0.00 41 1012.8
20260509023049 20 111 1.6 6.4 0.00 0.00 0.00 40 1012.8
20260509022542 21 98 3.2 6.4 0.00 0.00 0.00 37 1012.7
20260509022041 21 360 3.2 6.4 0.00 0.00 0.00 38 1012.7
20260509021549 21 360 1.6 6.4 0.00 0.00 0.00 38 1012.7
20260509021038 22 119 3.2 8.0 0.00 0.00 0.00 36 1012.7
20260509020538 22 128 1.6 8.0 0.00 0.00 0.00 36 1012.7
20260509020050 22 0 1.6 11.3 0.00 0.00 0.00 35 1012.7
20260509015539 23 159 4.8 11.3 0.00 0.00 0.00 34 1012.7
20260509015040 23 146 4.8 8.0 0.00 0.00 0.00 34 1012.7
20260509014548 24 172 1.6 8.0 0.00 0.00 0.00 34 1012.8
20260509014039 24 149 1.6 8.0 0.00 0.00 0.00 32 1012.8
20260509013539 25 150 1.6 8.0 0.00 0.00 0.00 31 1012.8
20260509013056 25 194 3.2 8.0 0.00 0.00 0.00 29 1012.9
20260509012538 25 146 3.2 8.0 0.00 0.00 0.00 29 1012.9
20260509012039 26 123 1.6 8.0 0.00 0.00 0.00 28 1013.0
20260509011551 26 150 1.6 6.4 0.00 0.00 0.00 29 1013.0
20260509011038 26 129 3.2 6.4 0.00 0.00 0.00 28 1013.1
20260509010538 26 122 1.6 11.3 0.00 0.00 0.00 27 1013.1
20260509010046 26 138 3.2 11.3 0.00 0.00 0.00 28 1013.2
20260509005540 26 130 4.8 11.3 0.00 0.00 0.00 28 1013.2
20260509005038 26 164 4.8 9.7 0.00 0.00 0.00 26 1013.2
20260509004601 26 138 3.2 9.7 0.00 0.00 0.00 25 1013.3
20260509004039 26 226 3.2 8.0 0.00 0.00 0.00 25 1013.2
20260509003539 26 193 1.6 8.0 0.00 0.00 0.00 24 1013.3
20260509003053 26 126 0.0 11.3 0.00 0.00 0.00 25 1013.4
20260509002541 26 198 0.0 14.5 0.00 0.00 0.00 24 1013.3
20260509002038 26 199 1.6 16.1 0.00 0.00 0.00 25 1013.3
20260509001555 26 213 8.0 16.1 0.00 0.00 0.00 25 1013.3
20260509001040 26 294 4.8 11.3 0.00 0.00 0.00 24 1013.4
20260509000538 26 11 1.6 9.7 0.00 0.00 0.00 25 1013.4
20260509000051 26 250 3.2 9.7 0.00 0.00 0.00 25 1013.5
20260508235539 26 155 0.0 8.0 0.00 0.00 0.00 24 1013.5
20260508235040 26 322 4.8 14.5 0.00 0.00 0.00 27 1013.6
20260508234550 26 0 1.6 14.5 0.00 0.00 0.00 24 1013.6
20260508234038 26 219 4.8 11.3 0.00 0.00 0.00 25 1013.7
20260508233543 26 208 1.6 9.7 0.00 0.00 0.00 26 1013.7
20260508233054 26 203 3.2 14.5 0.00 0.00 0.00 24 1013.7
20260508232538 26 262 1.6 14.5 0.00 0.00 0.00 25 1013.8
20260508232038 25 202 3.2 14.5 0.00 0.00 0.00 24 1013.8
20260508231557 25 195 3.2 14.5 0.00 0.00 0.00 25 1013.8
20260508231039 25 215 4.8 14.5 0.00 0.00 0.00 25 1013.7
20260508230544 25 257 8.0 14.5 0.00 0.00 0.00 24 1013.8
20260508230055 25 126 3.2 17.7 0.00 0.00 0.00 25 1013.8
20260508225540 25 251 8.0 22.5 0.00 0.00 0.00 26 1014.0
20260508225040 25 244 8.0 22.5 0.00 0.00 0.00 26 1014.0
20260508224556 24 190 8.0 17.7 0.00 0.00 0.00 26 1014.1
20260508224040 24 338 8.0 14.5 0.00 0.00 0.00 27 1014.1
20260508223539 25 70 4.8 17.7 0.00 0.00 0.00 27 1014.2
20260508223052 25 319 6.4 17.7 0.00 0.00 0.00 24 1014.3
20260508222540 25 259 8.0 19.3 0.00 0.00 0.00 25 1014.4
20260508222039 25 281 4.8 20.9 0.00 0.00 0.00 25 1014.4
20260508221553 25 257 8.0 20.9 0.00 0.00 0.00 26 1014.6
20260508221039 25 250 11.3 20.9 0.00 0.00 0.00 25 1014.6
20260508220539 25 260 4.8 20.9 0.00 0.00 0.00 26 1014.6
20260508220059 25 0 6.4 22.5 0.00 0.00 0.00 25 1014.7
20260508215539 25 306 11.3 22.5 0.00 0.00 0.00 26 1014.7
20260508215039 25 329 14.5 22.5 0.00 0.00 0.00 27 1014.8
20260508214603 25 306 1.6 16.1 0.00 0.00 0.00 27 1014.9
20260508214038 24 302 8.0 22.5 0.00 0.00 0.00 25 1014.9
20260508213538 24 304 6.4 22.5 0.00 0.00 0.00 28 1014.9
20260508213050 24 300 11.3 22.5 0.00 0.00 0.00 27 1015.1
20260508212539 24 311 1.6 20.9 0.00 0.00 0.00 27 1015.1
20260508212040 24 287 11.3 22.5 0.00 0.00 0.00 26 1015.2
20260508211548 24 311 8.0 22.5 0.00 0.00 0.00 27 1015.3
20260508211038 24 296 12.9 22.5 0.00 0.00 0.00 26 1015.3
20260508210539 24 180 9.7 22.5 0.00 0.00 0.00 26 1015.3
20260508210055 24 266 6.4 22.5 0.00 0.00 0.00 26 1015.4
20260508205538 24 310 14.5 22.5 0.00 0.00 0.00 27 1015.5
20260508205040 23 231 6.4 20.9 0.00 0.00 0.00 27 1015.5
20260508204553 23 304 8.0 22.5 0.00 0.00 0.00 28 1015.6
20260508204038 23 270 8.0 22.5 0.00 0.00 0.00 27 1015.6
20260508203540 23 296 11.3 22.5 0.00 0.00 0.00 27 1015.8
20260508203053 23 288 11.3 19.3 0.00 0.00 0.00 27 1015.8
20260508202542 23 302 9.7 24.1 0.00 0.00 0.00 28 1015.8
20260508202038 23 229 8.0 24.1 0.00 0.00 0.00 28 1015.7
20260508201552 23 252 14.5 24.1 0.00 0.00 0.00 27 1015.8
20260508201044 23 276 4.8 20.9 0.00 0.00 0.00 28 1015.7
20260508200538 23 280 8.0 19.3 0.00 0.00 0.00 28 1015.8
20260508200053 23 198 9.7 20.9 0.00 0.00 0.00 29 1015.8
20260508195539 22 252 8.0 20.9 0.00 0.00 0.00 30 1015.8
20260508195039 22 28 9.7 20.9 0.00 0.00 0.00 29 1015.8
20260508194550 22 250 12.9 19.3 0.00 0.00 0.00 29 1015.8
20260508194039 22 250 11.3 19.3 0.00 0.00 0.00 31 1015.8
20260508193538 22 227 11.3 22.5 0.00 0.00 0.00 32 1015.9
20260508193110 22 44 9.7 24.1 0.00 0.00 0.00 31 1015.9
20260508192538 22 290 11.3 24.1 0.00 0.00 0.00 32 1015.9
20260508192043 22 308 12.9 24.1 0.00 0.00 0.00 31 1015.9
20260508191555 22 302 9.7 24.1 0.00 0.00 0.00 33 1016.0
20260508191038 22 234 9.7 24.1 0.00 0.00 0.00 32 1016.1
20260508190540 22 249 14.5 24.1 0.00 0.00 0.00 31 1016.1
20260508190105 22 287 9.7 20.9 0.00 0.00 0.00 32 1016.1
20260508185543 22 262 11.3 24.1 0.00 0.00 0.00 33 1016.1
20260508185041 22 247 11.3 24.1 0.00 0.00 0.00 32 1016.2
20260508184558 22 261 9.7 24.1 0.00 0.00 0.00 32 1016.2
20260508184039 22 209 9.7 19.3 0.00 0.00 0.00 32 1016.2
20260508183539 22 225 11.3 19.3 0.00 0.00 0.00 32 1016.3
20260508183111 22 236 11.3 19.3 0.00 0.00 0.00 33 1016.4
20260508182541 21 196 9.7 20.9 0.00 0.00 0.00 35 1016.4
20260508182039 21 201 9.7 20.9 0.00 0.00 0.00 35 1016.5
20260508181553 21 273 11.3 19.3 0.00 0.00 0.00 34 1016.6
20260508181042 21 196 8.0 17.7 0.00 0.00 0.00 37 1016.6
20260508180539 21 269 4.8 17.7 0.00 0.00 0.00 36 1016.6
20260508175539 21 155 6.4 16.1 0.00 0.00 0.00 35 1016.7
20260508175038 21 0 8.0 16.1 0.00 0.00 0.00 35 1016.7
20260508174604 21 244 6.4 16.1 0.00 0.00 0.00 37 1016.8
20260508174038 21 218 4.8 12.9 0.00 0.00 0.00 34 1016.8
20260508173537 21 173 6.4 16.1 0.00 0.00 0.00 38 1016.8
20260508173051 21 257 6.4 17.7 0.00 0.00 0.00 39 1016.9
20260508172541 21 238 3.2 17.7 0.00 0.00 0.00 39 1016.8
20260508172044 20 241 8.0 16.1 0.00 0.00 0.00 38 1016.8
20260508171554 20 286 4.8 16.1 0.00 0.00 0.00 39 1016.9
20260508171042 20 257 4.8 16.1 0.00 0.00 0.00 40 1016.9
20260508170540 20 269 6.4 16.1 0.00 0.00 0.00 41 1016.9
20260508170059 20 260 4.8 14.5 0.00 0.00 0.00 43 1016.8
20260508165539 20 264 8.0 16.1 0.00 0.00 0.00 43 1016.8
20260508165040 20 228 4.8 16.1 0.00 0.00 0.00 46 1016.8
20260508164613 20 224 8.0 16.1 0.00 0.00 0.00 46 1016.8
20260508164038 20 309 9.7 16.1 0.00 0.00 0.00 46 1016.7
20260508163542 20 241 3.2 11.3 0.00 0.00 0.00 47 1016.7
20260508163051 20 225 1.6 12.9 0.00 0.00 0.00 47 1016.6
20260508162538 20 204 1.6 12.9 0.00 0.00 0.00 47 1016.7
20260508162039 20 244 3.2 8.0 0.00 0.00 0.00 47 1016.7
20260508161602 20 224 3.2 6.4 0.00 0.00 0.00 47 1016.7
20260508161038 19 261 1.6 6.4 0.00 0.00 0.00 49 1016.6
20260508160538 19 0 0.0 6.4 0.00 0.00 0.00 49 1016.6
20260508160054 19 218 1.6 9.7 0.00 0.00 0.00 49 1016.7
20260508155539 18 225 1.6 11.3 0.00 0.00 0.00 49 1016.7
20260508155039 18 195 4.8 11.3 0.00 0.00 0.00 50 1016.7
20260508154553 18 0 0.0 6.4 0.00 0.00 0.00 50 1016.5
20260508154040 18 161 0.0 6.4 0.00 0.00 0.00 51 1016.5
20260508153539 17 170 3.2 6.4 0.00 0.00 0.00 52 1016.5
20260508153056 17 48 1.6 4.8 0.00 0.00 0.00 53 1016.5
20260508152538 17 70 1.6 4.8 0.00 0.00 0.00 55 1016.5
20260508152038 17 85 1.6 4.8 0.00 0.00 0.00 55 1016.4
20260508151551 16 77 0.0 4.8 0.00 0.00 0.00 55 1016.4
20260508151039 16 0 0.0 3.2 0.00 0.00 0.00 56 1016.4
20260508150539 15 0 0.0 3.2 0.00 0.00 0.00 57 1016.5
20260508150051 15 0 0.0 3.2 0.00 0.00 0.00 57 1016.4
20260508145540 15 0 0.0 3.2 0.00 0.00 0.00 58 1016.4
20260508145039 15 196 0.0 4.8 0.00 0.00 0.00 59 1016.4
20260508144552 14 211 1.6 4.8 0.00 0.00 0.00 61 1016.3
20260508144040 14 192 0.0 4.8 0.00 0.00 0.00 63 1016.2
20260508143540 13 167 0.0 4.8 0.00 0.00 0.00 64 1016.2
20260508143055 13 0 0.0 4.8 0.00 0.00 0.00 66 1016.2
20260508142539 12 0 0.0 3.2 0.00 0.00 0.00 67 1016.1
20260508142039 12 0 1.6 3.2 0.00 0.00 0.00 68 1016.1
20260508141600 12 0 0.0 3.2 0.00 0.00 0.00 69 1016.1
20260508141038 11 79 1.6 3.2 0.00 0.00 0.00 71 1016.1
20260508140541 11 0 0.0 1.6 0.00 0.00 0.00 71 1016.1
20260508140052 10 0 0.0 1.6 0.00 0.00 0.00 72 1016.0
20260508135540 10 0 0.0 1.6 0.00 0.00 0.00 72 1015.9
20260508135039 10 0 0.0 4.8 0.00 0.00 0.00 73 1015.9
20260508134553 9 0 0.0 4.8 0.00 0.00 0.00 73 1015.8
20260508134039 8 85 0.0 3.2 0.00 0.00 0.00 73 1015.7
20260508133539 8 0 0.0 3.2 0.00 0.00 0.00 73 1015.7
20260508133048 8 0 0.0 3.2 0.00 0.00 0.00 73 1015.6
20260508132539 7 360 0.0 4.8 0.00 0.00 0.00 73 1015.6
20260508132039 7 0 0.0 6.4 0.00 0.00 0.00 72 1015.5
20260508131603 7 89 1.6 6.4 0.00 0.00 0.00 72 1015.4
20260508131041 7 69 3.2 6.4 0.00 0.00 0.00 72 1015.3
20260508130542 7 73 1.6 4.8 0.00 0.00 0.00 71 1015.3
20260508130048 7 73 1.6 6.4 0.00 0.00 0.00 71 1015.2
20260508125539 6 77 1.6 6.4 0.00 0.00 0.00 71 1015.1
20260508125038 6 0 1.6 6.4 0.00 0.00 0.00 71 1015.1
20260508124548 6 62 1.6 4.8 0.00 0.00 0.00 71 1015.0
20260508124038 6 0 0.0 4.8 0.00 0.00 0.00 70 1015.0
20260508123539 6 61 3.2 8.0 0.00 0.00 0.00 70 1014.9
20260508123112 6 62 1.6 8.0 0.00 0.00 0.00 69 1014.8
20260508122538 6 63 4.8 8.0 0.00 0.00 0.00 69 1014.7
20260508122042 7 46 3.2 6.4 0.00 0.00 0.00 69 1014.8
20260508121601 7 43 1.6 4.8 0.00 0.00 0.00 69 1014.7
20260508121038 7 71 1.6 4.8 0.00 0.00 0.00 69 1014.7
20260508120539 7 0 0.0 8.0 0.00 0.00 0.00 69 1014.6
20260508120108 7 0 1.6 8.0 0.00 0.00 0.00 69 1014.6
20260508115538 7 78 3.2 8.0 0.00 0.00 0.00 69 1014.5